International Virtual Aviation Organisation

Russian Federation and Kazakhstan MCD

 

Карточка аэропорта ULAA

Внимание!
Информация на этой странице в стадии наполнения.
Если вы не увидели какой-то информации, или заметили неточность - пожалуйста сообщите нам!
Спасибо!
Команда RU-STAFF
Название аэропортаТалаги
Название аэропорта (англ.)Talagi
Превышение62 ft. (18.9 m.)
Координаты64°36.018', 40°43.002'
Высота перехода800m
Эшелон переходаQFE>=760mm:FL040; QFE<760=>733:FL050; QFE<733:FL060
Коды ответчика3120-3127
Зона ОрВДАрхангельск РПИ (ULAA)
Данные METARULAA 210200Z 31002MPS 9999 BKN014CB M01/M01 Q1008 R26/590340 NOSIG RMK QFE754/1006
Проноз погоды (TAF)ULAA 210200Z 2103/2203 33003MPS 9999 BKN017CB TEMPO 2103/2109 30003MPS 0500 +SHSN BKN003 BKN011CB TEMPO 2109/2121 32003G08MPS 6000 -SHSN BKN016CB TEMPO 2121/2203 VRB01MPS 0300 FZFG FEW002
NOTAMshow/hide NOTAM
AWOS   TABLE

Информация о ВПП


Диспетчерские позиции

Позывной Наименование органа УВД Частота
ULAA_APPАрхангельск-Подход122.0
ULAA_TWRАрхангельск-Вышка121.8



Спутниковое изображение